This is the latest recevied weather packets stored in our database for station/object W9PEM-13. If no packets are shown the sender has not sent any weather packets the latest 1 day(s).
| Time | Temp. | Humidity | Pressure | Rain* | Wind** | Luminosity | Snow |
|---|---|---|---|---|---|---|---|
| 1778011479 | 13.33° C | 37% | 978 hPa | 0 mm | 4.47 m/s, 270° | 758 W/m² | - |
| 1778011412 | 13.33° C | 37% | 978 hPa | 0 mm | 4.47 m/s, 270° | 758 W/m² | - |
| 1778011125 | 13.33° C | 35% | 977.9 hPa | 0 mm | 2.68 m/s, 345° | 755 W/m² | - |
| 1778010813 | 13.33° C | 35% | 977.9 hPa | 0 mm | 2.68 m/s, 345° | 755 W/m² | - |
| 1778010475 | 13.33° C | 36% | 977.9 hPa | 0 mm | 2.24 m/s, 270° | 631 W/m² | - |
| 1778010212 | 13.33° C | 36% | 977.9 hPa | 0 mm | 2.24 m/s, 270° | 631 W/m² | - |
| 1778009907 | 13.33° C | 39% | 977.9 hPa | 0 mm | 2.68 m/s, 273° | 733 W/m² | - |
| 1778009838 | 13.33° C | 39% | 977.9 hPa | 0 mm | 2.68 m/s, 273° | 733 W/m² | - |
| 1778009687 | 13.33° C | 39% | 977.9 hPa | 0 mm | 2.68 m/s, 273° | 733 W/m² | - |
| 1778009612 | 13.33° C | 39% | 977.9 hPa | 0 mm | 2.68 m/s, 273° | 733 W/m² | - |
| 1778009338 | 12.78° C | 37% | 978 hPa | 0 mm | 2.68 m/s, 0° | 688 W/m² | - |
| 1778009298 | 12.78° C | 37% | 978 hPa | 0 mm | 2.68 m/s, 0° | 688 W/m² | - |
| 1778009012 | 12.78° C | 37% | 978 hPa | 0 mm | 2.68 m/s, 0° | 688 W/m² | - |
| 1778008693 | 12.78° C | 38% | 977.9 hPa | 0 mm | 3.58 m/s, 281° | 676 W/m² | - |
| 1778008412 | 12.78° C | 38% | 977.9 hPa | 0 mm | 3.58 m/s, 281° | 676 W/m² | - |
| 1778008084 | 12.78° C | 36% | 977.8 hPa | 0 mm | 2.68 m/s, 254° | 603 W/m² | - |
| 1778007877 | 12.78° C | 36% | 977.8 hPa | 0 mm | 2.68 m/s, 254° | 603 W/m² | - |
| 1778007812 | 12.78° C | 36% | 977.8 hPa | 0 mm | 2.68 m/s, 254° | 603 W/m² | - |
| 1778007473 | 12.78° C | 37% | 977.8 hPa | 0 mm | 4.47 m/s, 257° | 546 W/m² | - |
| 1778007212 | 12.78° C | 37% | 977.8 hPa | 0 mm | 4.47 m/s, 257° | 546 W/m² | - |
| 1778006866 | 12.22° C | 38% | 977.6 hPa | 0 mm | 1.79 m/s, 280° | 602 W/m² | - |
| 1778006612 | 12.22° C | 38% | 977.6 hPa | 0 mm | 1.79 m/s, 280° | 602 W/m² | - |
| 1778006259 | 12.22° C | 39% | 977.7 hPa | 0 mm | 3.13 m/s, 274° | 608 W/m² | - |
| 1778006012 | 12.22° C | 39% | 977.7 hPa | 0 mm | 3.13 m/s, 274° | 608 W/m² | - |
| 1778005652 | 12.22° C | 38% | 977.5 hPa | 0 mm | 2.24 m/s, 77° | 806 W/m² | - |
* Rain latest hour (hover to see other rain measurements)
** Current wind speed in m/s (hover to see current wind gust speed)